KB1DML-3 Weather Reports


time (UTC)temp
C
wind
direction
speed
KPH
gust
KPH
rain 1hr
cm
rain 24hr
cm
rain mn
cm
humidity
%
barometer
mb
20260507111024 -17 338 8.0 12.9 0.00 0.00 0.00
20260507110542 -17 315 8.0 12.9 0.00 0.00 0.00
20260507110022 -17 315 9.7 14.5 0.00 0.00 0.00
20260507105522 -17 315 11.3 17.7 0.00 0.00 0.00
20260507105022 -17 315 11.3 16.1 0.00 0.00 0.00
20260507104021 -17 338 11.3 16.1 0.00 0.00 0.00
20260507103524 -17 315 14.5 20.9 0.00 0.00 0.00
20260507103021 -17 338 16.1 20.9 0.00 0.00 0.00
20260507102525 -17 338 17.7 22.5 0.00 0.00 0.00
20260507102022 -17 338 16.1 22.5 0.00 0.00 0.00
20260507101542 -17 338 16.1 20.9 0.00 0.00 0.00
20260507101024 -17 338 17.7 20.9 0.00 0.00 0.00
20260507100543 -17 338 19.3 22.5 0.00 0.00 0.00
20260507100023 -17 338 19.3 22.5 0.00 0.00 0.00
20260507095521 -17 338 22.5 29.0 0.00 0.00 0.00
20260507095041 -17 338 20.9 27.4 0.00 0.00 0.00
20260507094528 -17 338 20.9 27.4 0.00 0.00 0.00
20260507094120 -17 338 22.5 30.6 0.00 0.00 0.00
20260507093521 -17 338 20.9 29.0 0.00 0.00 0.00
20260507093021 -17 338 19.3 25.7 0.00 0.00 0.00
20260507092521 -17 338 16.1 24.1 0.00 0.00 0.00
20260507092021 -17 315 19.3 27.4 0.00 0.00 0.00
20260507091541 -17 315 17.7 27.4 0.00 0.00 0.00
20260507091022 -17 315 17.7 24.1 0.00 0.00 0.00
20260507090521 -17 315 16.1 25.7 0.00 0.00 0.00
20260507090021 -17 315 16.1 24.1 0.00 0.00 0.00
20260507085521 -17 315 14.5 20.9 0.00 0.00 0.00
20260507084521 -17 315 16.1 27.4 0.00 0.00 0.00
20260507084023 -17 315 19.3 29.0 0.00 0.00 0.00
20260507083522 -17 315 16.1 24.1 0.00 0.00 0.00
20260507083022 -17 315 19.3 29.0 0.00 0.00 0.00
20260507082545 -17 315 24.1 35.4 0.00 0.00 0.00
20260507081526 -17 315 22.5 33.8 0.00 0.00 0.00
20260507081041 -17 315 20.9 32.2 0.00 0.00 0.00
20260507080529 -17 315 20.9 33.8 0.00 0.00 0.00
20260507080023 -17 315 22.5 33.8 0.00 0.00 0.00
20260507075530 -17 315 22.5 30.6 0.00 0.00 0.00
20260507075021 -17 315 22.5 30.6 0.00 0.00 0.00
20260507074528 -17 315 22.5 32.2 0.00 0.00 0.00
20260507074027 -17 315 19.3 29.0 0.00 0.00 0.00
20260507073542 -17 315 17.7 29.0 0.00 0.00 0.00
20260507073041 -17 315 16.1 22.5 0.00 0.00 0.00
20260507072521 -17 315 12.9 22.5 0.00 0.00 0.00
20260507072025 -17 293 11.3 20.9 0.00 0.00 0.00
20260507071521 -17 293 11.3 17.7 0.00 0.00 0.00
20260507071021 -17 293 9.7 17.7 0.00 0.00 0.00
20260507070542 -17 293 12.9 24.1 0.00 0.00 0.00
20260507070021 -17 293 14.5 24.1 0.00 0.00 0.00
20260507065521 -17 293 11.3 19.3 0.00 0.00 0.00
20260507065021 -17 315 11.3 19.3 0.00 0.00 0.00
20260507064521 -17 315 11.3 17.7 0.00 0.00 0.00
20260507064022 -17 315 8.0 14.5 0.00 0.00 0.00
20260507063521 -17 315 6.4 14.5 0.00 0.00 0.00
20260507063020 -17 293 8.0 16.1 0.00 0.00 0.00
20260507062522 -17 315 11.3 17.7 0.00 0.00 0.00
20260507062021 -17 315 14.5 24.1 0.00 0.00 0.00
20260507061531 -17 315 12.9 20.9 0.00 0.00 0.00
20260507061021 -17 315 11.3 20.9 0.00 0.00 0.00
20260507060535 -17 315 14.5 20.9 0.00 0.00 0.00
20260507060023 -17 315 16.1 25.7 0.00 0.00 0.00
20260507055521 -17 315 17.7 24.1 0.00 0.00 0.00
20260507055021 -17 315 17.7 25.7 0.00 0.00 0.00
20260507054521 -17 315 16.1 27.4 0.00 0.00 0.00
20260507054021 -17 315 17.7 25.7 0.00 0.00 0.00
20260507053520 -17 315 20.9 32.2 0.00 0.00 0.00
20260507053024 -17 315 20.9 32.2 0.00 0.00 0.00
20260507052619 -17 315 19.3 27.4 0.00 0.00 0.00
20260507052025 -17 315 16.1 24.1 0.00 0.00 0.00
20260507051521 -17 315 9.7 22.5 0.00 0.00 0.00
20260507051021 -17 270 8.0 12.9 0.00 0.00 0.00
20260507050521 -17 248 12.9 16.1 0.00 0.00 0.00
20260507050044 -17 248 12.9 16.1 0.00 0.00 0.00
20260507045520 -17 270 12.9 19.3 0.00 0.00 0.00
20260507045043 -17 270 17.7 24.1 0.00 0.00 0.00
20260507044520 -17 270 16.1 20.9 0.00 0.00 0.00
20260507044059 -17 248 16.1 22.5 0.00 0.00 0.00
20260507043024 -17 225 16.1 20.9 0.00 0.00 0.00
20260507042520 -17 248 16.1 24.1 0.00 0.00 0.00
20260507042021 -17 225 19.3 25.7 0.00 0.00 0.00
20260507041545 -17 225 17.7 25.7 0.00 0.00 0.00
20260507041021 -17 225 12.9 25.7 0.00 0.00 0.00
20260507040539 -17 225 14.5 22.5 0.00 0.00 0.00
20260507040028 -17 225 14.5 24.1 0.00 0.00 0.00
20260507035542 -17 248 17.7 24.1 0.00 0.00 0.00
20260507035021 -17 248 17.7 24.1 0.00 0.00 0.00
20260507034021 -17 248 19.3 24.1 0.00 0.00 0.00
20260507033521 -17 248 19.3 24.1 0.00 0.00 0.00
20260507033042 -17 225 20.9 25.7 0.00 0.00 0.00
20260507032022 -17 225 20.9 25.7 0.00 0.00 0.00
20260507031526 -17 225 20.9 27.4 0.00 0.00 0.00
20260507031021 -17 225 20.9 29.0 0.00 0.00 0.00
20260507030541 -17 225 22.5 29.0 0.00 0.00 0.00
20260507030025 -17 225 22.5 29.0 0.00 0.00 0.00
20260507024521 -17 248 20.9 30.6 0.00 0.00 0.00
20260507024024 -17 225 20.9 27.4 0.00 0.00 0.00
20260507023524 -17 225 19.3 27.4 0.00 0.00 0.00
20260507023021 -17 225 16.1 25.7 0.00 0.00 0.00
20260507022541 -17 225 14.5 24.1 0.00 0.00 0.00
20260507022021 -17 225 19.3 25.7 0.00 0.00 0.00
20260507021522 -17 225 19.3 27.4 0.00 0.00 0.00
20260507021022 -17 225 16.1 24.1 0.00 0.00 0.00
20260507015525 -17 225 17.7 25.7 0.00 0.00 0.00
20260507015023 -17 225 16.1 24.1 0.00 0.00 0.00
20260507014521 -17 225 16.1 25.7 0.00 0.00 0.00
20260507014021 -17 225 16.1 24.1 0.00 0.00 0.00
20260507013606 -17 225 14.5 24.1 0.00 0.00 0.00
20260507013021 -17 225 16.1 25.7 0.00 0.00 0.00
20260507012523 -17 225 16.1 25.7 0.00 0.00 0.00
20260507012021 -17 225 19.3 29.0 0.00 0.00 0.00
20260507011521 -17 225 20.9 29.0 0.00 0.00 0.00
20260507011059 -17 225 19.3 29.0 0.00 0.00 0.00
20260507010521 -17 225 20.9 29.0 0.00 0.00 0.00
20260507010022 -17 225 22.5 30.6 0.00 0.00 0.00
20260507003521 -17 203 29.0 35.4 0.00 0.00 0.00
20260507003023 -17 203 29.0 33.8 0.00 0.00 0.00
20260507002521 -17 203 29.0 35.4 0.00 0.00 0.00
20260507002021 -17 203 29.0 33.8 0.00 0.00 0.00
20260507001521 -17 203 30.6 35.4 0.00 0.00 0.00
20260507001021 -17 203 30.6 35.4 0.00 0.00 0.00
20260507000523 -17 203 32.2 40.2 0.00 0.00 0.00
20260507000023 -17 203 32.2 37.0 0.00 0.00 0.00
20260506235521 -17 203 33.8 43.5 0.00 0.00 0.00
20260506235021 -17 203 30.6 35.4 0.00 0.00 0.00
20260506234559 -17 203 30.6 37.0 0.00 0.00 0.00
20260506234021 -17 203 30.6 35.4 0.00 0.00 0.00
20260506233544 -17 203 29.0 33.8 0.00 0.00 0.00
20260506233021 -17 203 30.6 35.4 0.00 0.00 0.00
20260506232521 -17 203 33.8 40.2 0.00 0.00 0.00
20260506232021 -17 203 33.8 38.6 0.00 0.00 0.00
20260506231602 -17 203 35.4 41.8 0.00 0.00 0.00
20260506231100 -17 203 37.0 48.3 0.00 0.00 0.00
20260506230542 -17 203 35.4 43.5 0.00 0.00 0.00
20260506230022 -17 203 33.8 37.0 0.00 0.00 0.00
20260506225521 -17 203 33.8 40.2 0.00 0.00 0.00
20260506225021 -17 203 33.8 38.6 0.00 0.00 0.00
20260506224521 -17 203 33.8 40.2 0.00 0.00 0.00
20260506224023 11 203 32.2 38.6 0.00 0.00 0.00 93
20260506223522 11 203 32.2 38.6 0.00 0.00 0.00 93
20260506223020 11 203 30.6 33.8 0.00 0.00 0.00 93
20260506222521 11 203 30.6 37.0 0.00 0.00 0.00 93
20260506222021 12 203 32.2 37.0 0.00 0.00 0.00 92
20260506221521 12 203 32.2 37.0 0.00 0.00 0.00 92
20260506221041 12 203 32.2 40.2 0.00 0.00 0.00 92
20260506220540 12 203 33.8 40.2 0.00 0.00 0.00 92
20260506220043 12 203 32.2 38.6 0.00 0.00 0.00 92
20260506215559 12 203 32.2 38.6 0.00 0.00 0.00 92
20260506214557 12 203 33.8 40.2 0.00 0.00 0.00 92
20260506214040 12 203 35.4 41.8 0.00 0.00 0.00 91
20260506213521 12 203 35.4 43.5 0.00 0.00 0.00 91
20260506213021 12 203 35.4 41.8 0.00 0.00 0.00 91
20260506212520 12 203 37.0 46.7 0.00 0.00 0.00 91
20260506212023 12 203 37.0 45.1 0.00 0.00 0.00 91
20260506211542 12 203 35.4 46.7 0.00 0.00 0.00 90
20260506211021 12 203 35.4 41.8 0.00 0.00 0.00 90
20260506210542 12 203 33.8 41.8 0.00 0.00 0.00 89
20260506210021 12 203 33.8 40.2 0.00 0.00 0.00 89
20260506205524 12 203 33.8 41.8 0.00 0.00 0.00 89
20260506205024 12 203 33.8 40.2 0.00 0.00 0.00 89
20260506204524 12 203 35.4 40.2 0.00 0.00 0.00 89
20260506204025 12 203 37.0 45.1 0.00 0.00 0.00 89
20260506203525 12 203 37.0 43.5 0.00 0.00 0.00 89
20260506203021 12 203 38.6 45.1 0.00 0.00 0.00 88
20260506202521 12 203 38.6 43.5 0.00 0.00 0.00 88
20260506202045 12 203 37.0 43.5 0.00 0.00 0.00 88
20260506201520 12 203 37.0 43.5 0.00 0.00 0.00 87
20260506201020 12 203 38.6 51.5 0.00 0.00 0.00 87
20260506200550 12 203 40.2 46.7 0.00 0.00 0.00 87
20260506200023 12 203 40.2 51.5 0.00 0.00 0.00 86
20260506195520 13 203 40.2 46.7 0.00 0.00 0.00 86
20260506195023 13 203 40.2 49.9 0.00 0.00 0.00 86
20260506194524 13 203 41.8 49.9 0.00 0.00 0.00 86
20260506194021 13 203 40.2 48.3 0.00 0.00 0.00 86
20260506193520 13 203 40.2 48.3 0.00 0.00 0.00 85
20260506193020 13 203 38.6 43.5 0.00 0.00 0.00 85
20260506192520 13 203 40.2 46.7 0.00 0.00 0.00 85
20260506192020 13 203 40.2 46.7 0.00 0.00 0.00 85
20260506191523 13 203 38.6 45.1 0.00 0.00 0.00 85
20260506185521 13 203 38.6 51.5 0.00 0.00 0.00 85
20260506185021 13 203 41.8 48.3 0.00 0.00 0.00 84
20260506184521 13 203 43.5 51.5 0.00 0.00 0.00 85
20260506182020 12 203 35.4 40.2 0.00 0.00 0.00 86
20260506181523 12 203 37.0 41.8 0.00 0.00 0.00 86
20260506180523 12 203 38.6 43.5 0.00 0.00 0.00 87
20260506180044 12 203 35.4 41.8 0.00 0.00 0.00 86
20260506175520 12 203 35.4 43.5 0.00 0.00 0.00 86
20260506175047 12 203 35.4 41.8 0.00 0.00 0.00 86
20260506174520 13 203 35.4 40.2 0.00 0.00 0.00 85
20260506174020 13 203 38.6 45.1 0.00 0.00 0.00 86
20260506173522 13 203 38.6 43.5 0.00 0.00 0.00 86
20260506173021 13 203 38.6 45.1 0.00 0.00 0.00 86
20260506172522 13 203 38.6 45.1 0.00 0.00 0.00 86
20260506172026 12 203 37.0 45.1 0.00 0.00 0.00 86
20260506171522 12 203 38.6 45.1 0.00 0.00 0.00 86
20260506171022 12 203 40.2 46.7 0.00 0.00 0.00 86
20260506170542 12 203 38.6 48.3 0.00 0.00 0.00 86
20260506170022 12 203 37.0 41.8 0.00 0.00 0.00 85
20260506165523 13 203 37.0 41.8 0.00 0.00 0.00 85
20260506165042 13 203 37.0 45.1 0.00 0.00 0.00 86
20260506164523 13 203 37.0 45.1 0.00 0.00 0.00 86
20260506164023 13 203 37.0 41.8 0.00 0.00 0.00 86
20260506163542 13 203 35.4 43.5 0.00 0.00 0.00 87
20260506163023 12 203 37.0 46.7 0.00 0.00 0.00 88
20260506162522 12 203 35.4 41.8 0.00 0.00 0.00 89
20260506162022 12 203 29.0 37.0 0.00 0.00 0.00 89
20260506161521 11 203 25.7 29.0 0.00 0.00 0.00 88
20260506161022 11 203 29.0 32.2 0.00 0.00 0.00 88
20260506160539 12 203 30.6 37.0 0.00 0.00 0.00 88
20260506160025 12 203 30.6 38.6 0.00 0.00 0.00 88
20260506155522 12 203 30.6 35.4 0.00 0.00 0.00 88
20260506155026 12 203 32.2 38.6 0.00 0.00 0.00 89
20260506154521 11 203 30.6 35.4 0.00 0.00 0.00 89
20260506154022 11 203 29.0 33.8 0.00 0.00 0.00 89
20260506153521 11 203 27.4 32.2 0.00 0.00 0.00 89
20260506153042 11 203 27.4 30.6 0.00 0.00 0.00 89
20260506152521 11 203 25.7 30.6 0.00 0.00 0.00 90
20260506151522 11 203 27.4 32.2 0.00 0.00 0.00 89
20260506151042 11 203 24.1 29.0 0.00 0.00 0.00 90
20260506150521 11 203 24.1 29.0 0.00 0.00 0.00 90
20260506150042 11 203 24.1 29.0 0.00 0.00 0.00 90
20260506145542 11 203 22.5 27.4 0.00 0.00 0.00 90
20260506145022 11 203 22.5 25.7 0.00 0.00 0.00 90
20260506144522 11 203 22.5 25.7 0.00 0.00 0.00 90
20260506144021 11 203 22.5 29.0 0.00 0.00 0.00 90
20260506143558 -17 203 22.5 27.4 0.00 0.00 0.00
20260506143021 -17 203 22.5 25.7 0.00 0.00 0.00
20260506142522 -17 203 19.3 24.1 0.00 0.00 0.00
20260506142021 -17 203 16.1 20.9 0.00 0.00 0.00
20260506141542 -17 203 16.1 17.7 0.00 0.00 0.00
20260506141022 -17 203 16.1 17.7 0.00 0.00 0.00
20260506140525 -17 203 17.7 20.9 0.00 0.00 0.00
20260506140022 -17 203 17.7 22.5 0.00 0.00 0.00
20260506135525 -17 203 19.3 20.9 0.00 0.00 0.00
20260506135021 -17 203 19.3 22.5 0.00 0.00 0.00
20260506134544 -17 203 20.9 24.1 0.00 0.00 0.00
20260506134021 -17 203 22.5 27.4 0.00 0.00 0.00
20260506133522 -17 203 24.1 27.4 0.00 0.00 0.00
20260506133021 -17 203 25.7 30.6 0.00 0.00 0.00
20260506132521 -17 203 29.0 37.0 0.00 0.00 0.00
20260506132021 -17 203 27.4 33.8 0.00 0.00 0.00
20260506131521 -17 225 25.7 32.2 0.00 0.00 0.00
20260506131022 -17 203 27.4 33.8 0.00 0.00 0.00
20260506130521 -17 203 27.4 33.8 0.00 0.00 0.00
20260506124022 -17 203 27.4 32.2 0.00 0.00 0.00
20260506123523 -17 203 29.0 33.8 0.00 0.00 0.00
20260506123021 -17 203 30.6 37.0 0.00 0.00 0.00
20260506122542 -17 203 29.0 38.6 0.00 0.00 0.00
20260506122021 -17 203 27.4 33.8 0.00 0.00 0.00
20260506121542 -17 203 29.0 38.6 0.00 0.00 0.00
20260506121021 -17 203 32.2 37.0 0.00 0.00 0.00
20260506114021 -17 203 27.4 37.0 0.00 0.00 0.00
20260506113601 -17 203 30.6 37.0 0.00 0.00 0.00
20260506113025 -17 203 30.6 37.0 0.00 0.00 0.00
20260506112527 -17 203 29.0 35.4 0.00 0.00 0.00
20260506112021 -17 203 29.0 37.0 0.00 0.00 0.00
20260506111521 -17 203 30.6 38.6 0.00 0.00 0.00